This is the latest recevied weather packets stored in our database for station/object KK7NDB. If no packets are shown the sender has not sent any weather packets the latest 10 day(s).
| Time | Temp. | Humidity | Pressure | Rain* | Wind** | Luminosity | Snow |
|---|---|---|---|---|---|---|---|
| 1788143341 | 66° F | 55% | 756 mmHg | 0 in | - | 0 W/m² | - |
| 1788143039 | 67° F | 54% | 755.9 mmHg | 0 in | - | 0 W/m² | - |
| 1788142735 | 67° F | 51% | 756 mmHg | 0 in | - | 0 W/m² | - |
| 1788142434 | 66° F | 54% | 756 mmHg | 0 in | - | 0 W/m² | - |
| 1788142130 | 67° F | 55% | 755.9 mmHg | 0 in | - | 1 W/m² | - |
| 1788141830 | 67° F | 52% | 755.9 mmHg | 0 in | - | 2 W/m² | - |
| 1788141525 | 66° F | 52% | 755.8 mmHg | 0 in | - | 4 W/m² | - |
| 1788141221 | 66° F | 56% | 756 mmHg | 0 in | - | 6 W/m² | - |
| 1788140921 | 66° F | 57% | 755.8 mmHg | 0 in | - | 8 W/m² | - |
| 1788140616 | 67° F | 56% | 755.8 mmHg | 0 in | - | 11 W/m² | - |
| 1788140312 | 68° F | 55% | 755.7 mmHg | 0 in | - | 14 W/m² | - |
| 1788140012 | 68° F | 54% | 755.6 mmHg | 0 in | - | 16 W/m² | - |
| 1788139706 | 68° F | 53% | 755.6 mmHg | 0 in | - | 19 W/m² | - |
| 1788139402 | 69° F | 54% | 755.7 mmHg | 0 in | - | 21 W/m² | - |
| 1788139101 | 70° F | 51% | 755.5 mmHg | 0 in | - | 22 W/m² | - |
| 1788138797 | 71° F | 49% | 755.5 mmHg | 0 in | - | 23 W/m² | - |
| 1788138493 | 71° F | 46% | 755.5 mmHg | 0 in | - | 30 W/m² | - |
| 1788138187 | 71° F | 48% | 755.5 mmHg | 0 in | - | 29 W/m² | - |
| 1788137883 | 71° F | 47% | 755.6 mmHg | 0 in | - | 39 W/m² | - |
| 1788137578 | 72° F | 45% | 755.9 mmHg | 0 in | - | 39 W/m² | - |
| 1788137272 | 72° F | 46% | 755.8 mmHg | 0 in | - | 57 W/m² | - |
| 1788136968 | 72° F | 45% | 755.5 mmHg | 0 in | - | 90 W/m² | - |
| 1788136664 | 71° F | 43% | 755.7 mmHg | 0 in | - | 92 W/m² | - |
| 1788136360 | 71° F | 44% | 755.7 mmHg | 0 in | - | 63 W/m² | - |
| 1788136059 | 72° F | 44% | 755.8 mmHg | 0 in | - | 63 W/m² | - |
* Rain latest hour (hover to see other rain measurements)
** Current wind speed in m/s (hover to see current wind gust speed)